Vorticity
16 18 20 19 19 19 20 22 22 21 19 16 13 11 10 9 9 9 9 10 10 11 12 12 11 11 15 22 26 21 13 6 12 16 17 16 15 13 10 7 5 4 4 4 4 5 6 9 10 10 11 10 9 7 6 5 5 5 5 5 2 1 2 4 6 6 5 5 7
10 14 17 19 19 18 18 18 19 20 20 19 16 14 12 11 10 10 10 11 11 11 12 12 10 8 9 16 21 17 10 6 8 11 12 12 12 12 11 8 5 4 2 2 1 2 5 9 9 7 4 3 5 4 2 2 0 1 2 2 0 -0 1 3 6 8 8 7 6
7 10 12 16 18 18 17 16 16 18 19 20 19 18 16 14 13 12 12 12 12 11 12 12 11 8 7 8 13 15 14 11 11 11 12 12 12 11 10 8 6 3 2 0 0 1 4 11 9 6 2 -0 1 0 0 1 -1 -2 -2 -0 0 1 3 6 8 10 11 11 10
6 8 9 12 15 17 17 16 14 15 17 19 20 20 18 17 15 13 13 12 12 11 11 12 12 10 9 8 9 12 13 14 13 13 14 13 13 12 11 8 4 2 0 -0 -0 1 4 11 11 8 4 2 0 -1 -1 2 0 -2 -2 0 4 5 6 7 8 9 10 12 11
3 6 9 11 13 14 15 15 13 13 13 15 17 18 19 19 17 15 13 12 12 11 11 11 11 11 11 10 10 11 12 14 15 16 16 16 15 14 12 10 5 1 -1 -2 -2 -1 3 9 12 10 7 4 1 1 2 5 5 2 -0 1 6 7 6 3 0 1 4 9 10
3 4 7 11 13 14 13 13 12 11 10 11 13 15 17 19 18 17 15 13 12 12 11 11 11 11 11 10 10 11 11 13 15 16 18 18 16 15 13 11 7 4 0 -3 -3 -1 2 9 14 14 11 5 4 5 7 8 8 6 3 2 4 4 2 -1 -6 -7 -6 -1 2
7 6 7 11 14 15 13 12 11 10 9 9 10 11 14 17 18 18 17 15 13 12 11 10 10 10 10 10 10 10 10 12 14 16 18 19 18 15 13 12 10 8 4 0 -3 -3 -1 7 15 17 14 8 6 6 7 6 6 5 4 4 4 4 2 -0 -4 -5 -5 -3 -2
10 9 10 13 16 16 14 11 10 9 8 8 8 8 10 13 16 18 18 17 15 13 12 10 10 10 10 9 9 8 9 10 13 15 17 20 19 17 13 11 12 12 10 6 1 -2 -3 -0 11 17 19 15 10 7 6 5 5 4 4 5 6 5 3 3 2 3 4 6 5
7 9 11 14 17 17 15 11 10 10 9 9 7 7 7 9 12 14 16 17 16 14 12 11 10 9 9 9 8 8 8 9 11 13 15 18 19 18 16 13 17 22 22 16 7 2 -2 -3 4 11 17 18 15 12 10 9 9 11 12 13 8 4 2 4 7 8 9 9 9
5 7 10 14 17 17 15 12 10 10 11 11 10 9 8 7 9 11 13 16 16 15 13 11 10 9 9 8 8 8 8 8 9 11 13 15 17 17 16 15 21 30 37 35 23 12 4 0 1 5 8 11 13 13 14 14 12 12 12 14 9 5 4 8 10 11 11 10 9
4 5 8 12 14 15 14 12 10 10 11 12 12 12 11 9 9 10 12 14 15 16 15 13 12 10 9 9 9 8 8 8 8 9 10 12 14 16 15 11 10 16 27 38 38 30 18 9 7 6 5 5 8 11 13 14 12 12 13 16 10 7 9 14 13 11 10 10 9
3 3 4 7 10 12 12 11 10 10 11 11 13 13 13 12 11 10 11 13 14 16 16 15 14 12 11 10 10 9 8 7 7 7 8 9 10 13 15 16 9 5 7 16 29 34 33 24 21 18 16 12 11 11 12 12 12 13 14 14 9 10 13 16 13 11 10 9 8
3 2 1 2 4 6 7 8 8 9 10 10 11 12 13 13 12 11 11 12 13 15 15 15 14 13 12 12 11 10 9 7 7 6 6 6 7 9 13 18 18 11 3 -2 3 10 18 21 22 22 23 22 19 16 13 11 12 13 13 11 9 11 14 14 11 10 9 9 8
6 4 2 1 1 1 2 3 4 5 6 8 10 11 12 13 12 12 12 12 13 13 14 15 14 13 13 12 12 11 9 8 7 6 5 5 5 5 6 10 15 16 12 3 -2 -3 1 6 10 14 18 23 22 19 15 12 12 11 10 9 11 13 13 11 10 10 10 9 9
11 10 8 6 3 1 -0 -1 -0 1 3 5 7 10 11 13 13 12 12 12 12 13 13 13 13 14 14 14 13 12 10 8 7 6 5 5 4 3 4 5 9 13 15 13 7 2 -1 -1 2 7 14 23 23 20 14 10 7 6 7 10 13 13 12 10 10 11 11 9 8
6 9 10 10 9 6 2 -0 -1 -1 0 2 6 9 12 13 13 12 12 12 12 12 12 12 12 13 13 14 13 12 10 9 7 6 6 5 5 4 4 3 7 11 14 16 13 8 3 -0 2 8 15 22 20 16 10 6 4 4 8 13 15 13 11 10 10 10 10 9 9
-7 -2 4 6 8 8 5 2 1 -0 0 2 6 10 13 14 13 12 12 11 11 12 12 12 11 11 11 11 10 10 10 9 7 6 6 7 8 6 4 2 4 9 13 16 14 10 5 1 4 10 16 18 13 9 6 6 8 11 14 17 15 13 10 10 10 10 9 9 10
5 0 0 2 4 4 4 3 2 2 2 4 9 13 16 16 14 13 12 11 12 12 11 11 10 9 8 7 7 7 8 7 6 4 5 7 7 5 4 4 4 7 11 15 13 9 4 1 5 10 14 13 10 9 10 13 17 19 20 18 14 11 9 9 9 9 10 10 12
29 16 5 0 -0 -0 1 2 4 5 7 10 14 17 18 18 15 13 12 11 12 11 10 9 8 7 6 5 5 5 6 6 6 5 5 4 2 3 7 15 14 11 10 12 10 6 2 2 7 11 13 13 13 14 15 16 19 20 19 15 12 10 9 9 9 9 11 12 13
33 23 11 2 -0 -0 2 5 8 11 13 16 18 19 19 18 15 12 10 10 9 9 8 8 7 6 6 5 5 5 6 6 7 8 6 3 -2 -1 6 18 19 15 11 10 6 2 1 4 10 13 15 15 16 16 15 16 16 15 14 12 11 10 9 9 9 10 11 13 15
22 19 13 7 4 4 6 10 13 16 18 20 20 20 19 17 14 11 9 7 6 6 7 7 8 8 8 8 8 8 8 8 10 10 8 4 -1 -1 4 11 13 11 9 6 2 1 4 11 14 15 14 15 14 14 14 13 13 13 12 12 11 10 9 9 9 11 13 14 14
13 13 11 7 5 6 8 12 15 18 20 21 21 20 18 16 13 10 8 6 6 7 7 8 9 10 11 11 11 11 10 10 11 10 9 7 5 6 9 11 9 7 4 0 1 6 13 18 16 14 12 12 12 12 12 12 12 13 13 13 11 10 9 10 11 13 13 13 11
11 9 6 5 5 6 9 12 16 18 20 21 20 19 18 15 13 10 8 7 7 8 9 9 10 11 12 13 12 12 11 10 9 9 10 10 13 14 13 11 6 2 1 3 11 17 20 19 15 12 10 9 9 10 11 12 13 13 12 11 10 10 11 12 13 13 12 10 8
12 9 7 5 6 9 12 15 18 20 21 21 20 18 16 14 12 10 8 8 8 9 9 10 11 12 12 12 11 10 9 8 9 10 13 15 15 13 9 4 3 5 10 18 23 24 21 16 11 9 8 8 9 10 11 12 12 12 11 10 10 12 13 14 13 11 9 7 7
14 12 11 11 13 15 18 20 21 22 22 21 20 18 16 14 12 10 9 8 9 9 9 10 10 11 11 10 9 8 9 10 12 14 15 13 9 6 5 7 13 19 24 27 26 22 18 13 10 8 8 9 10 11 11 11 11 11 11 12 13 14 14 13 11 9 8 7 8
19 19 20 21 22 22 23 22 22 21 20 20 19 17 16 14 12 11 10 10 10 10 10 10 9 9 9 8 8 10 12 14 14 12 8 5 5 8 12 15 19 23 24 24 20 17 14 12 9 9 9 10 11 11 11 11 12 13 15 16 16 14 12 9 8 8 8 9 8
25 26 26 26 25 24 22 20 18 18 18 17 17 16 15 13 12 12 12 12 12 11 10 9 8 8 9 10 13 15 15 12 8 6 5 8 11 13 13 13 16 18 20 21 20 18 14 9 8 8 9 10 11 12 13 14 16 18 18 16 14 11 9 7 7 8 8 7 6
24 23 23 22 21 20 18 16 15 15 14 14 15 14 14 13 12 12 12 12 11 10 9 8 9 11 14 16 16 13 9 5 4 6 9 13 13 13 13 16 18 19 19 18 16 13 10 9 8 9 10 11 12 15 17 19 19 18 15 12 9 8 7 8 8 7 6 4 3
16 16 15 15 14 13 13 13 12 12 12 13 13 14 14 14 14 13 13 12 12 12 12 14 16 18 17 14 7 3 2 5 7 10 13 15 16 18 22 24 22 19 16 14 12 10 9 9 9 10 12 14 17 20 21 20 16 13 10 8 7 7 7 7 6 5 3 2 2
13 12 11 11 11 10 10 11 11 11 12 12 12 12 13 16 19 20 20 20 20 19 18 18 16 12 5 -1 -1 2 7 12 14 16 18 19 22 24 24 23 19 15 13 11 9 9 9 9 11 13 16 20 21 20 18 15 12 9 7 7 6 6 6 5 3 3 3 3 4
12 11 10 9 10 10 11 11 12 13 13 13 13 13 14 17 16 16 15 12 10 8 6 5 2 -2 -2 3 10 15 18 19 21 21 21 21 20 20 18 16 13 11 9 8 8 9 11 13 16 18 20 21 19 16 13 10 8 7 6 6 5 4 3 3 3 3 4 4 5
13 11 10 10 10 10 10 11 12 13 15 16 16 16 15 12 5 4 6 6 4 2 1 0 1 4 10 15 18 22 24 26 24 22 20 16 15 13 12 11 10 10 10 10 12 14 17 19 20 20 18 16 13 10 8 7 6 6 5 4 3 3 3 3 4 4 5 6 6
16 15 13 12 12 12 11 11 12 14 16 19 20 19 13 3 -5 -7 -3 2 5 8 13 16 16 17 18 20 24 26 27 26 21 17 13 12 11 11 11 11 13 14 15 17 19 21 21 20 18 15 13 10 8 7 6 5 4 3 2 2 3 3 4 4 5 6 7 8 9
18 17 16 15 16 16 17 17 17 17 18 20 20 15 6 -5 -10 -7 3 15 22 26 28 26 23 22 22 25 27 26 23 17 13 11 10 10 11 12 14 16 19 21 22 24 23 21 18 15 12 10 8 7 6 5 4 2 2 2 3 3 4 5 5 6 7 8 9 10 11
18 17 16 17 18 20 21 21 20 20 19 19 16 10 3 -4 -1 8 18 25 27 27 26 24 23 24 25 26 24 20 14 10 9 9 11 13 15 18 20 24 25 25 25 23 20 16 13 10 9 7 6 5 4 3 2 2 3 3 4 5 6 6 7 8 9 10 11 10 10
16 15 16 17 18 19 20 21 20 19 18 18 17 15 13 12 15 19 21 21 20 20 21 22 23 23 23 21 16 13 10 9 11 13 16 18 20 22 25 26 25 23 22 20 16 13 10 8 6 5 4 3 3 3 3 4 5 5 6 7 7 8 9 9 9 9 9 8 8
16 14 13 14 16 17 18 18 18 18 19 20 23 24 24 22 20 18 17 16 17 18 19 20 20 19 18 16 15 14 15 16 17 20 22 23 23 23 23 22 20 18 15 13 10 7 5 4 3 3 3 3 3 4 5 6 6 7 8 8 9 9 9 9 8 8 8 8 9
15 13 12 13 14 16 16 17 18 20 21 24 26 26 24 20 17 15 15 16 18 19 20 20 20 21 21 21 22 23 24 26 25 24 22 22 21 19 17 15 12 9 7 5 4 3 2 2 3 3 4 4 5 6 6 7 7 8 8 9 9 9 9 8 8 9 9 9 9
16 14 13 13 13 15 16 18 20 22 24 25 25 22 20 17 16 18 20 22 24 24 25 26 28 29 30 30 30 30 30 29 26 22 19 16 13 11 9 6 4 3 2 2 2 2 3 4 4 5 6 6 7 7 7 8 8 9 9 9 9 9 9 9 9 9 9 8 8
18 18 17 16 15 16 17 19 21 22 23 23 22 22 22 23 25 27 30 32 32 31 30 31 32 32 31 30 28 26 23 20 17 14 10 7 5 4 3 2 2 2 2 3 3 4 5 5 6 6 7 7 7 8 8 9 9 9 9 9 9 9 9 9 8 8 8 8 7
23 22 22 21 20 21 21 22 24 25 26 27 28 29 30 32 33 34 34 34 32 29 26 25 24 23 22 20 17 13 10 7 6 4 3 2 2 2 2 2 3 4 4 5 5 6 6 6 7 7 7 7 8 8 8 9 9 9 9 9 9 8 8 7 7 7 7 7 7
Height
3062 3062 3062 3062 3062 3063 3063 3064 3065 3065 3066 3066 3067 3068 3069 3070 3071 3071 3072 3073 3073 3074 3075 3076 3076 3076 3076 3076 3077 3077 3077 3077 3079 3080 3081 3083 3083 3085 3086 3086 3086 3087 3087 3086 3086 3086 3087 3087 3088 3089 3089 3090 3091 3091 3091 3091 3092 3092 3093 3093 3092 3092 3092 3092 3092 3092 3091 3091 3091
3060 3060 3060 3060 3060 3061 3061 3061 3062 3063 3063 3064 3065 3066 3066 3067 3068 3068 3069 3070 3071 3071 3072 3073 3074 3074 3074 3075 3076 3076 3076 3076 3077 3078 3079 3080 3081 3081 3082 3083 3083 3083 3083 3083 3083 3084 3084 3084 3085 3086 3086 3087 3087 3087 3088 3088 3089 3090 3090 3090 3090 3089 3089 3089 3090 3090 3090 3089 3089
3058 3058 3057 3058 3058 3058 3059 3059 3060 3061 3061 3062 3062 3063 3064 3064 3065 3066 3066 3067 3068 3069 3069 3070 3071 3071 3071 3072 3073 3074 3074 3074 3075 3076 3077 3077 3078 3079 3079 3080 3080 3080 3080 3080 3081 3081 3081 3082 3083 3084 3084 3084 3084 3085 3085 3085 3086 3086 3086 3086 3086 3086 3086 3086 3087 3087 3087 3087 3087
3056 3056 3055 3055 3056 3056 3056 3057 3058 3059 3059 3060 3060 3061 3061 3062 3062 3063 3063 3064 3065 3066 3066 3067 3067 3068 3069 3069 3070 3071 3071 3072 3073 3074 3074 3075 3076 3076 3077 3077 3077 3077 3077 3078 3078 3079 3079 3079 3080 3081 3081 3082 3082 3083 3083 3083 3083 3083 3083 3083 3082 3082 3083 3083 3084 3085 3085 3084 3084
3053 3053 3053 3053 3054 3054 3054 3055 3056 3056 3057 3057 3058 3058 3058 3059 3060 3060 3061 3061 3062 3062 3063 3064 3065 3065 3066 3066 3067 3068 3068 3069 3070 3071 3072 3072 3073 3074 3074 3075 3075 3076 3076 3076 3076 3076 3077 3077 3078 3079 3079 3080 3081 3081 3081 3081 3081 3080 3080 3079 3079 3079 3080 3081 3081 3082 3082 3082 3081
3051 3051 3051 3051 3051 3052 3052 3053 3053 3054 3054 3055 3055 3055 3056 3056 3057 3057 3058 3058 3059 3060 3061 3061 3061 3062 3063 3064 3064 3065 3066 3067 3067 3068 3069 3070 3071 3071 3071 3072 3072 3073 3073 3074 3074 3074 3074 3075 3076 3076 3077 3078 3078 3078 3078 3078 3077 3077 3076 3076 3076 3076 3077 3078 3078 3079 3079 3079 3079
3048 3048 3048 3049 3049 3049 3050 3050 3051 3051 3052 3052 3053 3053 3053 3054 3055 3055 3055 3056 3057 3057 3058 3058 3059 3060 3061 3061 3062 3063 3064 3065 3065 3066 3067 3067 3068 3068 3068 3068 3069 3070 3070 3071 3072 3072 3072 3073 3073 3074 3074 3075 3075 3076 3076 3075 3074 3074 3073 3073 3073 3074 3075 3075 3076 3076 3076 3076 3076
3046 3046 3046 3046 3047 3047 3047 3048 3048 3049 3049 3050 3050 3051 3051 3052 3052 3053 3053 3054 3054 3055 3055 3056 3056 3057 3058 3059 3060 3061 3061 3062 3063 3064 3064 3065 3065 3066 3066 3065 3066 3066 3067 3069 3070 3070 3071 3071 3071 3071 3071 3072 3072 3073 3072 3072 3071 3071 3071 3071 3071 3071 3072 3072 3073 3073 3073 3073 3073
3043 3043 3044 3044 3044 3045 3045 3045 3046 3046 3046 3047 3048 3049 3049 3050 3050 3050 3051 3051 3052 3052 3053 3053 3054 3055 3056 3056 3057 3058 3059 3060 3061 3061 3062 3062 3063 3063 3063 3063 3063 3064 3065 3066 3067 3068 3068 3069 3069 3069 3069 3070 3070 3070 3069 3070 3069 3068 3068 3068 3069 3069 3069 3070 3070 3070 3070 3070 3070
3041 3041 3041 3041 3042 3042 3042 3043 3043 3044 3044 3045 3046 3046 3046 3047 3047 3048 3048 3049 3050 3050 3050 3051 3051 3052 3053 3054 3055 3056 3057 3058 3058 3059 3059 3060 3060 3061 3061 3061 3061 3062 3063 3063 3064 3065 3065 3066 3066 3066 3066 3067 3067 3067 3066 3067 3067 3066 3066 3066 3066 3066 3066 3067 3067 3067 3067 3067 3067
3038 3038 3039 3039 3039 3040 3040 3040 3041 3041 3042 3042 3043 3043 3044 3044 3045 3046 3046 3047 3047 3048 3048 3048 3049 3050 3051 3051 3052 3053 3054 3055 3056 3056 3057 3057 3057 3058 3058 3059 3059 3060 3061 3061 3061 3061 3062 3062 3063 3064 3064 3064 3064 3064 3064 3064 3064 3064 3063 3063 3063 3064 3064 3064 3064 3064 3064 3064 3064
3036 3036 3036 3036 3037 3037 3038 3038 3038 3039 3039 3040 3040 3041 3041 3042 3042 3043 3044 3045 3045 3045 3046 3046 3047 3048 3048 3049 3050 3051 3051 3052 3053 3054 3055 3055 3055 3055 3056 3056 3056 3057 3058 3059 3059 3058 3058 3059 3060 3061 3061 3061 3061 3061 3061 3061 3061 3061 3061 3061 3061 3061 3061 3061 3061 3061 3061 3061 3061
3033 3034 3034 3034 3034 3035 3035 3036 3036 3036 3037 3037 3038 3038 3039 3039 3040 3041 3041 3042 3042 3043 3044 3044 3045 3045 3046 3046 3047 3048 3049 3050 3051 3051 3052 3052 3053 3053 3053 3054 3054 3054 3055 3055 3056 3056 3056 3056 3056 3057 3057 3058 3058 3058 3058 3058 3058 3058 3058 3058 3058 3058 3058 3058 3058 3058 3058 3058 3058
3031 3031 3031 3031 3032 3032 3033 3033 3033 3034 3034 3035 3035 3036 3036 3037 3037 3038 3039 3040 3040 3041 3041 3042 3042 3043 3043 3044 3045 3046 3047 3048 3048 3049 3049 3050 3050 3051 3051 3051 3051 3051 3052 3052 3052 3053 3053 3053 3054 3054 3055 3055 3055 3055 3056 3056 3056 3056 3056 3056 3056 3055 3055 3055 3056 3056 3056 3056 3056
3028 3028 3028 3028 3029 3029 3030 3031 3031 3031 3032 3032 3033 3033 3034 3034 3035 3036 3036 3037 3038 3038 3039 3040 3040 3041 3041 3042 3043 3044 3045 3045 3046 3046 3047 3047 3048 3049 3049 3049 3049 3049 3049 3049 3050 3050 3050 3051 3051 3052 3052 3052 3052 3053 3053 3053 3053 3053 3053 3053 3053 3052 3053 3053 3053 3053 3053 3053 3053
3024 3024 3025 3025 3026 3026 3027 3028 3028 3029 3029 3030 3030 3031 3031 3032 3033 3033 3034 3035 3035 3036 3037 3037 3038 3039 3040 3040 3041 3042 3042 3043 3043 3043 3044 3045 3046 3046 3046 3046 3047 3047 3047 3047 3047 3047 3048 3048 3049 3050 3050 3050 3050 3050 3050 3050 3050 3050 3050 3050 3050 3050 3050 3050 3050 3050 3050 3050 3050
3018 3019 3020 3021 3022 3023 3024 3025 3026 3026 3026 3027 3028 3028 3029 3030 3030 3031 3031 3032 3033 3033 3034 3035 3036 3036 3037 3038 3038 3039 3039 3040 3040 3041 3041 3042 3043 3043 3043 3044 3044 3044 3044 3044 3045 3045 3046 3046 3047 3048 3048 3048 3048 3047 3047 3047 3047 3047 3047 3047 3047 3047 3047 3047 3047 3047 3047 3047 3047
3014 3015 3016 3018 3019 3020 3021 3022 3023 3023 3024 3024 3025 3026 3026 3027 3028 3028 3029 3030 3030 3031 3031 3032 3033 3034 3034 3035 3035 3036 3036 3037 3038 3038 3038 3039 3040 3041 3041 3042 3042 3042 3042 3042 3043 3043 3044 3044 3045 3045 3045 3045 3045 3045 3045 3045 3045 3045 3045 3045 3045 3045 3045 3045 3045 3045 3045 3045 3045
3011 3012 3014 3015 3016 3017 3018 3019 3020 3021 3021 3021 3022 3023 3024 3024 3025 3026 3026 3027 3028 3028 3029 3029 3030 3031 3031 3032 3033 3034 3035 3035 3036 3036 3037 3037 3038 3038 3039 3039 3040 3040 3040 3041 3041 3041 3042 3042 3042 3042 3042 3042 3042 3043 3043 3043 3043 3043 3043 3042 3042 3042 3042 3042 3042 3043 3043 3042 3042
3010 3011 3012 3013 3014 3015 3016 3017 3017 3018 3018 3019 3019 3020 3021 3022 3022 3023 3024 3025 3025 3026 3026 3026 3027 3028 3029 3030 3031 3032 3033 3033 3034 3035 3036 3036 3036 3036 3036 3036 3037 3037 3038 3038 3039 3039 3039 3040 3040 3040 3040 3040 3041 3041 3041 3041 3041 3040 3040 3040 3040 3040 3040 3040 3040 3040 3040 3040 3040
3009 3010 3010 3011 3012 3013 3014 3015 3015 3015 3016 3016 3017 3018 3018 3019 3020 3021 3021 3022 3023 3023 3024 3024 3025 3026 3027 3028 3029 3030 3030 3031 3032 3033 3033 3034 3034 3034 3034 3034 3034 3035 3036 3036 3036 3036 3036 3037 3037 3038 3038 3038 3038 3038 3038 3038 3038 3038 3038 3038 3038 3038 3038 3038 3038 3038 3038 3037 3037
3007 3008 3008 3009 3010 3011 3011 3012 3012 3013 3013 3014 3015 3016 3016 3017 3018 3019 3019 3020 3021 3021 3022 3022 3023 3024 3025 3026 3026 3027 3028 3029 3030 3030 3031 3031 3032 3032 3032 3032 3032 3033 3033 3033 3033 3034 3034 3035 3035 3036 3036 3036 3036 3036 3036 3036 3036 3036 3036 3036 3036 3036 3036 3036 3036 3036 3036 3035 3035
3005 3006 3007 3007 3008 3009 3009 3010 3010 3011 3011 3012 3012 3013 3014 3015 3016 3017 3018 3018 3019 3019 3020 3021 3021 3022 3023 3023 3024 3025 3026 3026 3027 3028 3028 3029 3029 3030 3030 3030 3030 3030 3031 3031 3031 3031 3032 3032 3033 3033 3033 3033 3033 3034 3034 3034 3034 3034 3034 3034 3034 3034 3034 3034 3033 3033 3033 3033 3033
3003 3004 3005 3005 3006 3006 3006 3007 3007 3008 3009 3009 3010 3011 3012 3013 3014 3015 3016 3016 3017 3017 3018 3019 3019 3020 3021 3021 3022 3023 3024 3024 3025 3026 3026 3026 3027 3027 3028 3028 3028 3028 3028 3029 3029 3029 3029 3030 3030 3030 3031 3031 3032 3032 3032 3032 3032 3032 3032 3032 3032 3031 3031 3031 3031 3031 3031 3031 3031
3001 3001 3002 3003 3003 3004 3004 3005 3005 3006 3006 3007 3008 3009 3010 3011 3012 3013 3014 3015 3015 3016 3016 3017 3017 3018 3019 3019 3020 3021 3021 3022 3023 3023 3024 3025 3025 3025 3026 3026 3026 3026 3026 3026 3026 3026 3026 3027 3028 3028 3029 3030 3030 3030 3030 3030 3030 3030 3030 3030 3030 3030 3030 3030 3030 3030 3030 3030 3029
2998 2999 3000 3000 3001 3001 3002 3002 3003 3003 3004 3005 3006 3007 3008 3009 3010 3011 3012 3012 3013 3014 3014 3015 3016 3016 3017 3017 3018 3019 3020 3021 3021 3022 3022 3023 3023 3023 3023 3023 3022 3022 3022 3023 3023 3024 3024 3025 3026 3027 3027 3028 3028 3028 3028 3028 3028 3027 3027 3027 3028 3028 3028 3028 3028 3028 3028 3028 3027
2996 2997 2997 2998 2998 2999 3000 3000 3001 3001 3002 3003 3004 3005 3006 3007 3008 3009 3010 3011 3011 3012 3012 3013 3013 3014 3015 3016 3016 3017 3018 3019 3019 3020 3020 3021 3020 3020 3020 3019 3020 3020 3020 3021 3021 3022 3023 3024 3024 3025 3025 3026 3026 3026 3026 3025 3025 3026 3026 3026 3026 3026 3026 3026 3026 3026 3026 3026 3025
2994 2995 2995 2996 2996 2997 2998 2998 2999 3000 3001 3001 3002 3003 3005 3006 3006 3007 3008 3009 3009 3010 3011 3011 3012 3012 3013 3014 3015 3016 3016 3016 3017 3017 3018 3017 3017 3016 3016 3017 3017 3018 3018 3019 3020 3021 3021 3021 3022 3022 3023 3023 3023 3023 3023 3023 3024 3024 3024 3024 3025 3025 3025 3025 3025 3025 3024 3024 3023
2992 2993 2993 2994 2995 2995 2996 2996 2997 2998 2999 3000 3001 3002 3003 3004 3005 3006 3006 3007 3008 3008 3009 3010 3010 3011 3012 3012 3013 3014 3014 3014 3014 3015 3014 3014 3014 3014 3014 3015 3016 3016 3017 3017 3018 3018 3019 3019 3020 3020 3021 3021 3021 3021 3021 3022 3022 3023 3023 3023 3023 3023 3023 3023 3023 3022 3022 3021 3021
2991 2991 2992 2992 2993 2993 2994 2995 2996 2996 2997 2998 2999 3000 3001 3002 3003 3004 3005 3005 3006 3007 3007 3008 3009 3010 3010 3011 3011 3011 3011 3011 3011 3011 3011 3012 3012 3012 3013 3014 3014 3015 3015 3016 3016 3016 3017 3017 3018 3018 3019 3019 3019 3020 3020 3021 3021 3021 3022 3022 3022 3022 3021 3021 3021 3020 3019 3019 3018
2989 2990 2990 2990 2991 2991 2992 2993 2994 2995 2995 2996 2997 2998 2999 3000 3001 3002 3003 3004 3005 3006 3006 3007 3008 3008 3008 3008 3007 3007 3007 3008 3009 3009 3010 3010 3011 3011 3012 3012 3013 3013 3013 3014 3014 3015 3015 3016 3016 3016 3017 3018 3018 3019 3019 3020 3020 3020 3021 3021 3021 3020 3020 3019 3018 3018 3017 3016 3016
2988 2988 2988 2989 2989 2990 2990 2991 2992 2993 2994 2995 2995 2996 2997 2997 2998 2999 3000 3002 3003 3004 3004 3005 3005 3005 3004 3004 3004 3005 3005 3006 3007 3007 3008 3009 3009 3010 3010 3011 3011 3011 3012 3012 3013 3013 3013 3014 3015 3015 3016 3017 3017 3018 3018 3019 3019 3019 3019 3019 3018 3018 3017 3017 3016 3016 3015 3014 3013
2986 2986 2987 2987 2987 2988 2989 2989 2990 2991 2992 2993 2994 2995 2995 2996 2996 2996 2997 2998 2999 3000 3001 3001 3001 3001 3001 3001 3002 3003 3004 3005 3006 3006 3007 3007 3008 3008 3009 3009 3010 3010 3011 3011 3011 3012 3012 3013 3014 3015 3016 3016 3017 3017 3018 3018 3018 3018 3017 3017 3016 3016 3015 3015 3014 3013 3012 3011 3011
2985 2985 2985 2986 2986 2986 2987 2988 2988 2989 2990 2991 2992 2993 2994 2994 2994 2995 2995 2996 2996 2996 2997 2997 2998 2999 3000 3001 3001 3002 3003 3003 3004 3005 3005 3006 3006 3007 3007 3008 3008 3009 3009 3010 3011 3011 3012 3013 3014 3015 3015 3016 3016 3016 3016 3016 3016 3016 3015 3015 3014 3014 3013 3012 3011 3011 3010 3009 3009
2983 2983 2984 2984 2985 2985 2985 2986 2987 2988 2989 2990 2991 2991 2992 2993 2993 2993 2993 2994 2994 2994 2995 2996 2997 2998 2999 3000 3000 3001 3001 3002 3003 3003 3004 3005 3005 3006 3006 3007 3007 3008 3009 3010 3011 3011 3012 3013 3014 3014 3015 3015 3015 3015 3015 3015 3014 3014 3013 3013 3012 3011 3011 3010 3009 3009 3008 3007 3006
2981 2982 2982 2982 2983 2983 2984 2984 2985 2986 2987 2988 2989 2990 2991 2991 2991 2992 2992 2992 2993 2993 2994 2996 2996 2997 2998 2999 2999 3000 3000 3001 3002 3002 3003 3004 3004 3005 3006 3006 3007 3008 3009 3010 3011 3011 3012 3012 3013 3013 3014 3014 3013 3013 3013 3013 3012 3012 3011 3011 3010 3010 3009 3008 3007 3007 3006 3005 3004
2980 2981 2981 2981 2981 2981 2982 2983 2983 2985 2986 2987 2988 2989 2990 2990 2990 2991 2991 2991 2992 2993 2994 2995 2996 2996 2997 2997 2998 2999 2999 3000 3001 3002 3002 3003 3004 3005 3006 3007 3008 3008 3009 3010 3011 3011 3011 3012 3012 3012 3012 3012 3012 3012 3011 3011 3011 3010 3010 3009 3009 3008 3007 3006 3005 3005 3004 3003 3001
2979 2979 2979 2979 2980 2980 2981 2981 2982 2984 2985 2986 2987 2988 2989 2989 2990 2990 2991 2991 2992 2993 2993 2994 2995 2995 2996 2996 2997 2998 2999 3000 3001 3001 3002 3003 3004 3005 3006 3007 3008 3009 3009 3010 3011 3011 3011 3011 3011 3011 3011 3011 3011 3010 3010 3010 3009 3009 3008 3007 3006 3006 3005 3004 3003 3002 3001 3000 2999
2979 2978 2978 2978 2979 2979 2980 2981 2982 2984 2985 2986 2987 2988 2988 2989 2989 2990 2991 2991 2992 2992 2993 2993 2994 2995 2995 2996 2997 2998 2999 3000 3001 3002 3003 3004 3005 3006 3006 3007 3008 3009 3009 3010 3010 3010 3010 3010 3010 3010 3010 3009 3009 3009 3009 3008 3008 3007 3006 3006 3005 3004 3003 3002 3001 3000 2998 2997 2996
2979 2979 2979 2979 2980 2980 2981 2982 2983 2984 2985 2986 2986 2987 2988 2988 2989 2990 2991 2991 2992 2992 2993 2993 2994 2995 2996 2997 2998 2999 3000 3001 3002 3003 3004 3005 3005 3006 3007 3007 3008 3008 3009 3009 3009 3009 3009 3009 3009 3008 3008 3008 3008 3007 3007 3006 3006 3005 3004 3003 3002 3001 3000 2999 2998 2997 2996 2994 2993
2980 2980 2980 2981 2981 2981 2982 2982 2983 2984 2985 2985 2986 2987 2988 2989 2989 2990 2991 2991 2991 2992 2993 2994 2995 2996 2997 2998 2999 3000 3001 3002 3003 3004 3004 3005 3006 3006 3007 3007 3008 3008 3008 3008 3008 3008 3008 3008 3008 3007 3007 3006 3006 3006 3005 3005 3004 3003 3002 3001 3000 2999 2998 2996 2995 2994 2992 2991 2989